Salt Lake City, UT

8:02 PM MST on February 20, 2017 (GMT -0700)
Salt Lake City International

Weather History for KSLC - October, 2010

Change the Weather History Date:

Saturday, October 30, 2010

  Actual Average Record
Temperature  
Mean Temperature 55 °F 47 °F  
Max Temperature 64 °F 58 °F 77 °F (1950)
Min Temperature 46 °F 37 °F 16 °F (1971)
Degree Days  
Heating Degree Days 10 18  
Month to date heating degree days 260 362  
Since 1 July heating degree days 294 451  
Cooling Degree Days 0 0  
Month to date cooling degree days 21 5  
Year to date cooling degree days 1142 1158  
Growing Degree Days 4 (Base 50)    
Moisture  
Dew Point 38 °F    
Average Humidity 60    
Maximum Humidity 86    
Minimum Humidity 34    
Precipitation  
Precipitation 0.29 in 0.06 in 0.45 in (1968)
Month to date precipitation 2.09 1.47  
Year to date precipitation 13.04 13.19  
Snow  
Snow 0.00 in 0.10 in 2.20 in (1981)
Month to date snowfall 1.8 1.3  
Since 1 July snowfall 1.8 1.3  
Snow Depth 0.00 in    
Sea Level Pressure  
Sea Level Pressure 29.88 in    
Wind  
Wind Speed 10 mph (South)    
Max Wind Speed 28 mph    
Max Gust Speed 38 mph    
Visibility 9 miles    
Events Rain , Thunderstorm    
T = Trace of Precipitation, MM = Missing Value Source: NWS Daily Summary

Daily Weather History Graph

Daily Weather History Graph

Search for Another Location

Airport or City:

Trip Planner

Search our weather history database for the weather conditions in past years. The results will help you decide how hot, cold, wet, or windy it might be!

Date:

Astronomy

Oct. 30, 2010 Rise Set
Actual Time 7:56 AM MDT 6:26 PM MDT
Civil Twilight 7:27 AM MDT 6:54 PM MDT
Nautical Twilight 6:55 AM MDT 7:27 PM MDT
Astronomical Twilight 6:23 AM MDT 7:58 PM MDT
Moon 12:13 AM MDT (10/30) 2:34 PM MDT (10/30)
Length of Visible Light 11h 27m
Length of Day
10h 30m
Waning Gibbous, 47% of the Moon is Illuminated
Oct 30
Waning Gibbous
Nov 5
New
Nov 13
First Quarter
Nov 21
Full
Nov 28
Last Quarter

Hourly Weather History & Observations

Time (MDT) Temp. Windchill Dew Point Humidity Pressure Visibility Wind Dir Wind Speed Gust Speed Precip Events Conditions
12:53 AM 48.9 °F - 39.9 °F 71% 29.92 in 10.0 mi Calm Calm - N/A   Scattered Clouds
1:53 AM 51.1 °F - 36.0 °F 56% 29.91 in 10.0 mi Calm Calm - N/A   Mostly Cloudy
2:53 AM 48.0 °F - 36.0 °F 63% 29.91 in 10.0 mi Variable 3.5 mph - N/A   Scattered Clouds
3:53 AM 50.0 °F - 35.1 °F 57% 29.90 in 10.0 mi ESE 9.2 mph - N/A   Scattered Clouds
4:53 AM 48.0 °F - 34.0 °F 58% 29.89 in 10.0 mi ESE 8.1 mph - N/A   Scattered Clouds
5:53 AM 46.9 °F - 33.1 °F 59% 29.88 in 10.0 mi SE 4.6 mph - N/A   Partly Cloudy
6:53 AM 48.9 °F - 33.1 °F 54% 29.89 in 10.0 mi ESE 11.5 mph - N/A   Partly Cloudy
7:53 AM 48.0 °F - 33.1 °F 56% 29.87 in 10.0 mi SE 11.5 mph - N/A   Mostly Cloudy
8:53 AM 50.0 °F - 34.0 °F 54% 29.86 in 10.0 mi SSE 13.8 mph - N/A   Mostly Cloudy
9:53 AM 52.0 °F - 34.0 °F 50% 29.85 in 10.0 mi SE 15.0 mph - N/A   Mostly Cloudy
10:53 AM 57.0 °F - 35.1 °F 44% 29.81 in 10.0 mi SE 11.5 mph - N/A   Mostly Cloudy
11:53 AM 59.0 °F - 33.1 °F 38% 29.78 in 10.0 mi South 11.5 mph - N/A   Mostly Cloudy
12:53 PM 62.1 °F - 33.1 °F 34% 29.76 in 10.0 mi South 10.4 mph - N/A   Overcast
1:53 PM 62.1 °F - 32.0 °F 32% 29.73 in 10.0 mi South 18.4 mph 28.8 mph N/A   Overcast
2:39 PM 55.4 °F - 42.8 °F 63% 29.83 in 10.0 mi West 20.7 mph 31.1 mph 0.00 in Rain Light Rain
2:53 PM 55.9 °F - 39.9 °F 55% 29.78 in 10.0 mi WNW 23.0 mph 33.4 mph 0.00 in Rain Light Rain
3:45 PM 57.2 °F - 35.6 °F 44% 29.85 in 10.0 mi SW 16.1 mph 31.1 mph 0.00 in   Overcast
3:53 PM 57.0 °F - 36.0 °F 45% 29.78 in 10.0 mi South 18.4 mph 33.4 mph 0.00 in Rain Light Rain
4:01 PM 55.4 °F - 39.2 °F 54% 29.85 in 10.0 mi SSE 23.0 mph 33.4 mph 0.00 in Rain Light Rain
4:53 PM 52.0 °F - 41.0 °F 66% 29.81 in 10.0 mi SE 10.4 mph - 0.00 in   Overcast
5:11 PM 53.6 °F - 41.0 °F 62% 29.88 in 10.0 mi South 12.7 mph - N/A Thunderstorm Thunderstorm
5:20 PM 53.6 °F - 41.0 °F 62% 29.91 in 10.0 mi WSW 18.4 mph 27.6 mph N/A Thunderstorm Thunderstorm
5:24 PM 48.2 °F - 42.8 °F 82% 29.91 in 4.0 mi West 23.0 mph 33.4 mph 0.00 in Rain , Thunderstorm Light Thunderstorms and Rain
5:28 PM 46.4 °F 38.1 °F 42.8 °F 87% 29.92 in 2.0 mi WSW 24.2 mph 34.5 mph N/A Rain , Thunderstorm Heavy Thunderstorms and Rain
5:30 PM 48.2 °F - 42.8 °F 82% 29.92 in 1.5 mi WSW 25.3 mph 38.0 mph 0.08 in Rain , Thunderstorm Heavy Thunderstorms and Rain
5:43 PM 48.2 °F - 42.8 °F 82% 29.93 in 2.0 mi SSW 13.8 mph 21.9 mph 0.01 in Rain Rain
5:53 PM 48.0 °F - 44.1 °F 86% 29.89 in 2.5 mi SSW 12.7 mph - 0.22 in Rain Rain
6:08 PM 46.4 °F 42.4 °F 44.6 °F 93% 29.94 in 3.0 mi South 8.1 mph - 0.04 in Rain Light Rain
6:53 PM 48.0 °F - 45.0 °F 89% 29.91 in 9.0 mi SSE 5.8 mph - 0.07 in Rain Light Rain
7:53 PM 46.9 °F - 41.0 °F 80% 29.94 in 10.0 mi South 13.8 mph - 0.00 in   Overcast
8:53 PM 46.9 °F - 42.1 °F 83% 29.95 in 10.0 mi SSE 4.6 mph - N/A   Mostly Cloudy
9:53 PM 46.9 °F - 39.9 °F 77% 29.96 in 10.0 mi SE 5.8 mph - N/A   Overcast
10:53 PM 46.9 °F - 41.0 °F 80% 29.95 in 10.0 mi SSE 5.8 mph - N/A   Mostly Cloudy
11:53 PM 48.0 °F - 39.9 °F 74% 29.97 in 10.0 mi SE 5.8 mph - N/A   Overcast